Location: Villingen
(48.0639°N, 8.4609°E)
Time: 13:36:01
(UTC+01:00)

ISS - Pass Details

Date: 07 January 2018
Orbit: 402 x 407 km, 51.6° (Epoch: 21 January)

Event Time Altitude Azimuth Distance (km) Brightness Sun altitude
Exits shadow 05:55:57 33° 40° (NE) 702 -2.4 -22.4°
Drops below altitude 10° 05:58:13 10° 71° (ENE) 1,470 -0.1 -22.0°
Sets 06:00:23 0° 79° (E) 2,332 1.2 -21.7°
